Regional Weather Roundup
Issued by NWS

Home | Current Version | Previous Version | Text Only | Print | Product List | Glossary On
Versions: 1 2 3 4 5 6 7 8 9 10 11 12 13 14 15 16 17 18 19 20 21 22 23 24 25 26 27 28 29 30 31 32 33 34 35 36 37 38 39 40 41 42 43 44 45 46 47 48 49 50
000
ASUS43 KMPX 200310
RWRMN
WEATHER ROUNDUP FOR MINNESOTA
NATIONAL WEATHER SERVICE TWIN CITIES/CHANHASSEN MN
1000 PM CDT TUE SEP 19 2017


NOTE: "FAIR" INDICATES FEW OR NO CLOUDS BELOW 12,000 FEET WITH NO
SIGNIFICANT WEATHER AND/OR OBSTRUCTIONS TO VISIBILITY. N/A MEANS
CURRENT SKY AND/OR WEATHER CONDITIONS ARE NOT AVAILABLE.

MNZ060>063-068>070-200400-
   Twin Cities Metro

CITY           SKY/WX    TMP DP  RH WIND       PRES   REMARKS
TWIN CITIES    MOCLDY    72  63  73 SE17G26   29.66F
ST PAUL        PTCLDY    72  64  76 SE17G30   29.67F
CRYSTAL        CLOUDY    73  59  61 SE22G35   29.63F
BLAINE         MOCLDY    73  63  68 SE17G28   29.66F
LAKEVILLE      PTCLDY    70  63  78 SE13G18   29.67F
EDEN PRAIRIE   CLOUDY    73  62  68 SE18G33   29.63F
SOUTH ST PAUL  MOCLDY    73  61  68 SE12G21   29.68F
LAKE ELMO      FAIR      72  63  73 SE15G26   29.70F
$$
MNZ001>005-007-008-013>017-022>024-027-028-200400-
   Northwest Minnesota

CITY           SKY/WX    TMP DP  RH WIND       PRES   REMARKS
BEMIDJI        LGT RAIN  65  62  87 SE20G30   29.55F
HALLOCK        DRIZZLE   64  63  94 SE41G51   29.37S
ROSEAU         RAIN      64  59  82 N8        29.56F
WARROAD        CLOUDY    64  61  88 E8        29.58F
THIEF RVR FALL TSTM      63  63 100 E16G26    29.47F FOG
CROOKSTON      RAIN      61  61 100 N5        29.45F
FOSSTON        RAIN      61  59  94 E7        29.47F
DETROIT LAKES  CLOUDY    70  63  78 SE25G35   29.47F
MOORHEAD       CLOUDY    73  64  73 SE24      29.39F THUNDER
PARK RAPIDS    LGT RAIN  69  63  81 SE22G36   29.56R
MAHNOMEN       CLOUDY    69  63  82 SE21G31   29.43F
$$
MNZ006-009>011-018-025>026-200400-
   North Central Minnesota

CITY           SKY/WX    TMP DP  RH WIND       PRES   REMARKS
BAUDETTE       CLOUDY    66  60  81 SE15G26   29.59F
FLAG ISLAND    DRIZZLE   64  59  82 SE9       29.59F
INTL FALLS     CLOUDY    63  55  75 SE15      29.69R
WASKISH        CLOUDY    66  61  82 SE15G22   29.59F
BIG FORK       CLOUDY    64  57  77 SE10G18   29.66S
LONGVILLE      PTCLDY    64  61  88 SE9       29.63R
GRAND RAPIDS   CLOUDY    62  58  86 SE12G17   29.68F
CRANE LAKE     CLOUDY    59  54  82 CALM      29.76R
ORR            CLOUDY    61  54  77 SE8       29.69S
COOK           CLOUDY    61  55  82 SE5       29.73S
WALKER         CLOUDY    68  61  78 SE17G26   29.57S
$$
MNZ012-019>021-037-200400-
   Northeast Minnesota

CITY           SKY/WX    TMP DP  RH WIND       PRES   REMARKS
DULUTH         CLOUDY    62  58  86 E16       29.74F
ELY            CLOUDY    59  54  82 E10       29.76F
HIBBING        PTCLDY    59  55  87 SE10      29.71F
EVELETH        CLOUDY    60  57  90 E7        29.74F
DULUTH HARBOR  CLOUDY    63  61  94 NE16      29.74F
TWO HARBORS    MOCLDY    64  59  82 E9        29.76F
SILVER BAY     CLOUDY    63  57  82 E8        29.78F
GRAND MARAIS     N/A     62  55  77 NE14G21   29.84F
G MARAIS ARPRT CLOUDY    55  50  82 E8G16     29.88F
$$
MNZ029>031-032-039>041-046>048-054>057-064-200400-
   West Central Minnesota

CITY           SKY/WX    TMP DP  RH WIND       PRES   REMARKS
FERGUS FALLS   CLOUDY    73  64  73 SE25G35   29.44F
WHEATON        CLOUDY    73  64  73 SE21G28   29.42F
MORRIS         CLOUDY    73  66  78 SE28G33   29.45F
ALEXANDRIA     CLOUDY    72  64  76 SE23G36   29.55F
ELBOW LAKE     MOCLDY    72  65  79 E22G31    29.46F
WADENA         CLOUDY    70  63  78 SE20G28   29.54F
GLENWOOD       CLOUDY    72  64  78 SE23G31   29.56F
APPLETON       CLOUDY    75  64  69 SE15G24   29.45F
BENSON         CLOUDY    73  64  73 S21G30    29.50F
ORTONVILLE     CLOUDY    73  66  78 NE17      29.43F
MADISON        CLOUDY    77  68  73 SE20G29   29.44F
WILLMAR        MOCLDY    73  66  78 SE16G26   29.57F
$$
MNZ033>034-036-042>043-049>051-058-059-200400-
   Central Minnesota

CITY           SKY/WX    TMP DP  RH WIND       PRES   REMARKS
ST CLOUD       CLOUDY    72  62  71 SE17G30   29.62S
SAUK CENTRE    CLOUDY    71  63  76 SE16G23   29.58S
PAYNESVILLE    CLOUDY    72  64  75 SE13G21   29.61S
AITKIN         CLOUDY    68  61  77 SE16      29.63S
PINE RIVER     MOCLDY    66  59  77 SE16G24   29.65R
BRAINERD       CLOUDY    70  61  73 SE16G24   29.63R
STAPLES        CLOUDY    70  61  73 SE13G22   29.59R
LONG PRAIRIE   CLOUDY    70  61  73 E20G25    29.59S
LITTLE FALLS   CLOUDY    70  55  60 SE15G21   29.63R
LITCHFIELD     PTCLDY    73  64  73 SE15G24   29.61F
BUFFALO        MOCLDY    73  60  65 SE20G29   29.62F
MAPLE LAKE     CLOUDY    73  63  72 SE10G20   29.63F
HUTCHINSON     CLOUDY    72  65  79 SE15G21   29.61F
$$
MNZ037-044-045-052-053-200400-
   East Central Minnesota

CITY           SKY/WX    TMP DP  RH WIND       PRES   REMARKS
PRINCETON      CLEAR     72  63  73 SE13G20   29.64F
MORA           PTCLDY    68  61  77 SE9G18    29.67F
CAMBRIDGE      PTCLDY    73  61  64 SE12G21   29.65F
RUSH CITY      CLOUDY    70  62  74 SE13G21   29.68F
MOOSE LAKE     CLOUDY    61  57  88 E5        29.68F
HINCKLEY       FAIR      70  63  78 SE9G18    29.68F
CLOQUET        PTCLDY    61  55  82 E9        29.72F
MCGREGOR       PTCLDY    63  59  88 E12G18    29.66F
$$
MNZ071>073-080-081-089-090-097-098-200400-
   Southwest Minnesota

CITY           SKY/WX    TMP DP  RH WIND       PRES   REMARKS
MONTEVIDEO     CLOUDY    73  66  78 S18G24    29.48F
GRANITE FALLS  PTCLDY    75  68  78 SE15G23   29.52F
CANBY          CLOUDY    76  67  73 SE23G31   29.45F
MARSHALL       CLEAR     74  68  81 S20G31    29.49F
REDWOOD FALLS  CLOUDY    73  65  75 SE20G29   29.54F
OLIVIA         CLOUDY    72  64  78 SE18G29   29.56F
PIPESTONE      CLEAR     75  66  73 S22G30    29.48F
WINDOM         CLOUDY    73  64  73 SE21G28   29.58F
WORTHINGTON    PTCLDY    73  66  78 SE14G28   29.57F
JACKSON        PTCLDY    72  64  78 SE21G28   29.61F
TRACY          CLOUDY    74  69  85 S22G28    29.52F
SLAYTON        CLOUDY    73  66  80 SE18G32   29.55F
$$
MNZ065>067-074>077-082>085-091>093-200400-
   South Central Minnesota

CITY           SKY/WX    TMP DP  RH WIND       PRES   REMARKS
MANKATO        CLOUDY    72  64  76 SE23G31   29.63F
NEW ULM        PTCLDY    72  64  78 SE20G26   29.58F
ST JAMES       CLOUDY    72  64  78 SE17G24   29.61F
FAIRMONT       CLEAR     72  66  81 SE22G32   29.63F
GLENCOE        CLEAR     73  66  80 SE15G23   29.61F
FARIBAULT      PTCLDY    72  63  73 SE20G25   29.68F
OWATONNA       PTCLDY    72  63  73 SE20G35   29.69F
WASECA         PTCLDY    72  63  73 SE15G25   29.69F
ALBERT LEA     PTCLDY    73  64  73 S18G30    29.71F
$$
MNZ078>079-086>088-094>096-200400-
   Southeast Minnesota

CITY           SKY/WX    TMP DP  RH WIND       PRES   REMARKS
ROCHESTER      CLOUDY    68  63  84 SE17G25   29.76F
RED WING       CLOUDY    73  61  64 SE14G23   29.72F
STANTON        CLOUDY    73  62  68 SE17G29   29.68F
DODGE CENTER   PTCLDY    68  61  77 SE14G22   29.74F
WINONA         CLOUDY    70  63  78 SE7       29.79S
AUSTIN         CLOUDY    70  63  78 SE15G21   29.73F
PRESTON        CLOUDY    68  61  78 SE15G21   29.80S
$$
ABBREVIATIONS USED IN REMARKS
   TC - TEMPERATURES IN CELSIUS
  WCI - WIND CHILL INDEX
   HX - HEAT INDEX
  VSB - VISIBILITY
$$




USA.gov is the U.S. government's official web portal to all federal, state and local government web resources and services.